| time (UTC) | temp C | wind direction | speed KPH | gust KPH | rain 1hr cm | rain 24hr cm | rain mn cm | humidity % | barometer mb |
| 20260508065204 | -17 | 128 | 0.0 | 0.0 | 0.00 | 0.00 | 0.00 | 98 | 1002.6 |
| 20260508064704 | -17 | 128 | 0.0 | 0.0 | 0.00 | 0.00 | 0.00 | 98 | 1002.7 |
| 20260508064203 | -17 | 128 | 0.0 | 0.0 | 0.00 | 0.00 | 0.00 | 98 | 1002.6 |
| 20260508063703 | -17 | 128 | 0.0 | 0.0 | 0.00 | 0.00 | 0.00 | 98 | 1002.3 |
| 20260508063203 | -17 | 128 | 0.0 | 0.0 | 0.00 | 0.00 | 0.00 | 98 | 1002.4 |
| 20260508062702 | -17 | 128 | 0.0 | 0.0 | 0.00 | 0.00 | 0.00 | 98 | 1002.6 |
| 20260508062202 | -17 | 128 | 0.0 | 0.0 | 0.00 | 0.00 | 0.00 | 98 | 1002.4 |
| 20260508061701 | -17 | 128 | 0.0 | 0.0 | 0.00 | 0.00 | 0.00 | 98 | 1002.4 |
| 20260508061201 | -17 | 128 | 0.0 | 0.0 | 0.00 | 0.00 | 0.00 | 98 | 1002.7 |
| 20260508060702 | -17 | 128 | 0.0 | 0.0 | 0.00 | 0.00 | 0.00 | 98 | 1002.7 |
| 20260508060200 | -17 | 128 | 0.0 | 0.0 | 0.00 | 0.00 | 0.00 | 98 | 1002.7 |
| 20260508055700 | -17 | 128 | 0.0 | 0.0 | 0.00 | 0.00 | 0.00 | 98 | 1002.7 |
| 20260508055200 | -17 | 128 | 0.0 | 0.0 | 0.00 | 0.00 | 0.00 | 98 | 1002.6 |
| 20260508054659 | -17 | 128 | 0.0 | 0.0 | 0.00 | 0.00 | 0.00 | 98 | 1002.4 |
| 20260508054158 | -17 | 128 | 0.0 | 0.0 | 0.00 | 0.00 | 0.00 | 98 | 1002.7 |
| 20260508053657 | -17 | 128 | 0.0 | 0.0 | 0.00 | 0.00 | 0.00 | 98 | 1002.7 |
| 20260508053157 | -17 | 128 | 0.0 | 0.0 | 0.00 | 0.00 | 0.00 | 98 | 1002.8 |
| 20260508052657 | -17 | 128 | 0.0 | 0.0 | 0.00 | 0.00 | 0.00 | 98 | 1002.7 |
| 20260508052156 | -17 | 128 | 0.0 | 0.0 | 0.00 | 0.00 | 0.00 | 98 | 1002.7 |
| 20260508051656 | -17 | 128 | 0.0 | 0.0 | 0.00 | 0.00 | 0.00 | 98 | 1002.5 |
| 20260508051156 | -17 | 128 | 0.0 | 0.0 | 0.00 | 0.00 | 0.00 | 98 | 1002.8 |
| 20260508050655 | -17 | 128 | 0.0 | 0.0 | 0.00 | 0.00 | 0.00 | 98 | 1002.5 |
| 20260508050155 | -17 | 128 | 0.0 | 0.0 | 0.00 | 0.00 | 0.00 | 98 | 1002.6 |
| 20260508045654 | -17 | 128 | 0.0 | 0.0 | 0.00 | 0.00 | 0.00 | 98 | 1002.4 |
| 20260508045154 | -17 | 128 | 0.0 | 0.0 | 0.00 | 0.00 | 0.00 | 98 | 1002.5 |
| 20260508044654 | -17 | 128 | 0.0 | 0.0 | 0.00 | 0.00 | 0.00 | 98 | 1002.3 |
| 20260508044153 | -17 | 128 | 0.0 | 0.0 | 0.00 | 0.00 | 0.00 | 98 | 1002.6 |
| 20260508043653 | -17 | 128 | 0.0 | 0.0 | 0.00 | 0.00 | 0.00 | 98 | 1002.5 |
| 20260508043152 | -17 | 128 | 0.0 | 0.0 | 0.00 | 0.00 | 0.00 | 98 | 1002.4 |
| 20260508042652 | -17 | 128 | 0.0 | 0.0 | 0.00 | 0.00 | 0.00 | 98 | 1002.5 |
| 20260508042151 | -17 | 128 | 0.0 | 0.0 | 0.00 | 0.00 | 0.00 | 97 | 1002.5 |
| 20260508041650 | -17 | 128 | 0.0 | 0.0 | 0.00 | 0.00 | 0.00 | 97 | 1002.5 |
| 20260508041150 | -17 | 128 | 0.0 | 0.0 | 0.00 | 0.00 | 0.00 | 97 | 1002.5 |
| 20260508040650 | -17 | 128 | 0.0 | 0.0 | 0.00 | 0.00 | 0.00 | 97 | 1002.3 |
| 20260508040149 | -17 | 128 | 0.0 | 0.0 | 0.00 | 0.00 | 0.00 | 97 | 1002.3 |
| 20260508035649 | -17 | 128 | 0.0 | 0.0 | 0.00 | 1.22 | 1.22 | 97 | 1002.3 |
| 20260508035149 | -17 | 128 | 0.0 | 0.0 | 0.00 | 1.22 | 1.22 | 97 | 1002.1 |
| 20260508034648 | -17 | 128 | 0.0 | 0.0 | 0.00 | 1.22 | 1.22 | 97 | 1002.1 |
| 20260508034148 | -17 | 127 | 0.0 | 0.0 | 0.00 | 1.22 | 1.22 | 97 | 1001.9 |
| 20260508033648 | -17 | 90 | 1.6 | 1.6 | 0.00 | 1.22 | 1.22 | 96 | 1001.9 |
| 20260508033147 | -17 | 174 | 0.0 | 0.0 | 0.00 | 1.22 | 1.22 | 96 | 1001.9 |
| 20260508032647 | -17 | 174 | 0.0 | 0.0 | 0.00 | 1.22 | 1.22 | 96 | 1002.0 |
| 20260508032147 | -17 | 174 | 0.0 | 0.0 | 0.00 | 1.22 | 1.22 | 96 | 1001.7 |
| 20260508031646 | -17 | 175 | 0.0 | 0.0 | 0.00 | 1.22 | 1.22 | 96 | 1001.8 |
| 20260508031146 | -17 | 174 | 0.0 | 0.0 | 0.00 | 1.22 | 1.22 | 96 | 1001.9 |
| 20260508030645 | -17 | 175 | 0.0 | 0.0 | 0.00 | 1.22 | 1.22 | 95 | 1001.7 |
| 20260508030145 | -17 | 174 | 0.0 | 0.0 | 0.00 | 1.22 | 1.22 | 95 | 1001.7 |
| 20260508025645 | -17 | 175 | 0.0 | 0.0 | 0.00 | 1.22 | 1.22 | 95 | 1001.7 |
| 20260508025145 | -17 | 175 | 0.0 | 0.0 | 0.00 | 1.22 | 1.22 | 95 | 1001.7 |
| 20260508024644 | -17 | 175 | 0.0 | 0.0 | 0.00 | 1.22 | 1.22 | 94 | 1001.6 |
| 20260508024144 | -17 | 175 | 0.0 | 0.0 | 0.00 | 1.22 | 1.22 | 94 | 1001.4 |
| 20260508023644 | -17 | 175 | 0.0 | 0.0 | 0.00 | 1.22 | 1.22 | 94 | 1001.4 |
| 20260508023143 | -17 | 175 | 0.0 | 0.0 | 0.00 | 1.22 | 1.22 | 93 | 1001.5 |
| 20260508022643 | -17 | 175 | 0.0 | 0.0 | 0.00 | 1.22 | 1.22 | 93 | 1001.6 |
| 20260508022143 | -17 | 175 | 0.0 | 0.0 | 0.00 | 1.22 | 1.22 | 93 | 1001.3 |
| 20260508021642 | -17 | 175 | 0.0 | 0.0 | 0.00 | 1.22 | 1.22 | 93 | 1001.3 |
| 20260508021142 | -17 | 175 | 0.0 | 0.0 | 0.00 | 1.22 | 1.22 | 92 | 1001.4 |
| 20260508020642 | -17 | 174 | 0.0 | 0.0 | 0.00 | 1.22 | 1.22 | 93 | 1001.3 |
| 20260508020141 | -17 | 174 | 0.0 | 0.0 | 0.00 | 1.22 | 1.22 | 93 | 1001.1 |
| 20260508015641 | -17 | 175 | 0.0 | 0.0 | 0.00 | 1.22 | 1.22 | 93 | 1001.0 |
| 20260508015141 | -17 | 175 | 0.0 | 0.0 | 0.00 | 1.22 | 1.22 | 93 | 1001.1 |
| 20260508014640 | -17 | 185 | 0.0 | 0.0 | 0.00 | 1.22 | 1.22 | 93 | 1001.1 |
| 20260508014140 | -17 | 184 | 0.0 | 0.0 | 0.00 | 1.22 | 1.22 | 93 | 1000.9 |
| 20260508013640 | -17 | 184 | 0.0 | 0.0 | 0.00 | 1.22 | 1.22 | 94 | 1000.8 |
| 20260508013139 | -17 | 184 | 0.0 | 0.0 | 0.00 | 1.22 | 1.22 | 93 | 1000.6 |
| 20260508012639 | -17 | 122 | 0.0 | 0.0 | 0.00 | 1.22 | 1.22 | 93 | 1000.4 |
| 20260508012138 | -17 | 122 | 0.0 | 0.0 | 0.00 | 1.22 | 1.22 | 93 | 1000.3 |
| 20260508011638 | -17 | 122 | 0.0 | 0.0 | 0.00 | 1.22 | 1.22 | 93 | 1000.1 |
| 20260508010637 | -17 | 122 | 0.0 | 0.0 | 0.00 | 1.22 | 1.22 | 93 | 1000.5 |
| 20260508010137 | -17 | 122 | 0.0 | 0.0 | 0.00 | 1.22 | 1.22 | 93 | 1000.4 |
| 20260508005637 | -17 | 122 | 0.0 | 0.0 | 0.00 | 1.22 | 1.22 | 93 | 1000.3 |
| 20260508005136 | -17 | 122 | 0.0 | 0.0 | 0.00 | 1.22 | 1.22 | 92 | 1000.5 |
| 20260508004635 | -17 | 123 | 0.0 | 0.0 | 0.00 | 1.22 | 1.22 | 92 | 1000.3 |
| 20260508004135 | -17 | 143 | 0.0 | 0.0 | 0.00 | 1.22 | 1.22 | 93 | 1000.1 |
| 20260508003635 | -17 | 143 | 0.0 | 0.0 | 0.00 | 1.22 | 1.22 | 92 | 1000.2 |
| 20260508003134 | -17 | 144 | 0.0 | 0.0 | 0.00 | 1.22 | 1.22 | 92 | 1000.2 |
| 20260508002634 | -17 | 143 | 0.0 | 0.0 | 0.00 | 1.22 | 1.22 | 92 | 1000.1 |
| 20260508002133 | -17 | 178 | 0.0 | 0.0 | 0.00 | 1.22 | 1.22 | 92 | 999.9 |
| 20260508001633 | -17 | 147 | 0.0 | 0.0 | 0.00 | 1.22 | 1.22 | 92 | 999.7 |
| 20260508001132 | -17 | 116 | 0.0 | 0.0 | 0.00 | 1.22 | 1.22 | 91 | 999.8 |
| 20260508000632 | -17 | 129 | 0.0 | 0.0 | 0.00 | 1.22 | 1.22 | 92 | 999.9 |
| 20260508000132 | -17 | 183 | 0.0 | 1.6 | 0.00 | 1.22 | 1.22 | 91 | 1000.0 |
| 20260507235631 | -17 | 180 | 0.0 | 0.0 | 0.00 | 1.22 | 1.22 | 91 | 999.9 |
| 20260507235131 | -17 | 45 | 0.0 | 1.6 | 0.00 | 1.22 | 1.22 | 90 | 999.6 |
| 20260507234630 | -17 | 190 | 0.0 | 0.0 | 0.00 | 1.22 | 1.22 | 91 | 999.7 |
| 20260507234130 | -17 | 190 | 0.0 | 0.0 | 0.00 | 1.22 | 1.22 | 90 | 999.5 |
| 20260507233630 | -17 | 142 | 0.0 | 0.0 | 0.00 | 1.22 | 1.22 | 90 | 999.5 |
| 20260507233129 | -17 | 254 | 0.0 | 1.6 | 0.00 | 1.22 | 1.22 | 90 | 999.4 |
| 20260507232629 | -17 | 142 | 0.0 | 0.0 | 0.00 | 1.22 | 1.22 | 90 | 999.3 |
| 20260507232127 | -17 | 142 | 0.0 | 0.0 | 0.00 | 1.22 | 1.22 | 90 | 999.3 |
| 20260507231626 | -17 | 159 | 0.0 | 0.0 | 0.00 | 1.22 | 1.22 | 89 | 999.1 |
| 20260507231126 | -17 | 125 | 1.6 | 1.6 | 0.00 | 1.22 | 1.22 | 89 | 999.0 |
| 20260507230625 | -17 | 92 | 0.0 | 1.6 | 0.00 | 1.22 | 1.22 | 89 | 998.9 |
| 20260507230125 | -17 | 97 | 1.6 | 3.2 | 0.00 | 1.22 | 1.22 | 88 | 998.9 |
| 20260507225625 | -17 | 129 | 0.0 | 0.0 | 0.00 | 1.22 | 1.22 | 88 | 998.5 |
| 20260507225124 | -17 | 136 | 0.0 | 1.6 | 0.00 | 1.22 | 1.22 | 88 | 999.0 |
| 20260507224624 | -17 | 169 | 0.0 | 1.6 | 0.00 | 1.22 | 1.22 | 88 | 999.0 |
| 20260507224124 | -17 | 129 | 0.0 | 0.0 | 0.00 | 1.22 | 1.22 | 89 | 999.0 |
| 20260507223623 | -17 | 148 | 0.0 | 0.0 | 0.00 | 1.22 | 1.22 | 89 | 999.0 |
| 20260507223123 | -17 | 96 | 1.6 | 1.6 | 0.00 | 1.22 | 1.22 | 88 | 998.9 |
| 20260507222623 | -17 | 124 | 0.0 | 1.6 | 0.00 | 1.22 | 1.22 | 88 | 998.5 |
| 20260507222122 | -17 | 113 | 3.2 | 6.4 | 0.00 | 1.22 | 1.22 | 88 | 998.6 |
| 20260507221622 | -17 | 207 | 1.6 | 3.2 | 0.00 | 1.22 | 1.22 | 91 | 998.4 |
| 20260507221122 | -17 | 179 | 0.0 | 0.0 | 0.00 | 1.22 | 1.22 | 92 | 998.6 |
| 20260507220621 | -17 | 121 | 0.0 | 0.0 | 0.00 | 1.22 | 1.22 | 91 | 999.1 |
| 20260507220121 | -17 | 82 | 3.2 | 3.2 | 0.00 | 1.22 | 1.22 | 91 | 998.9 |
| 20260507215621 | -17 | 80 | 0.0 | 1.6 | 0.00 | 1.22 | 1.22 | 91 | 999.0 |
| 20260507215120 | -17 | 117 | 0.0 | 0.0 | 0.00 | 1.22 | 1.22 | 91 | 999.2 |
| 20260507214620 | -17 | 116 | 0.0 | 0.0 | 0.00 | 1.22 | 1.22 | 91 | 999.1 |
| 20260507214120 | -17 | 30 | 3.2 | 4.8 | 0.00 | 1.22 | 1.22 | 90 | 999.1 |
| 20260507213619 | -17 | 70 | 1.6 | 4.8 | 0.00 | 1.22 | 1.22 | 90 | 998.7 |
| 20260507213119 | -17 | 147 | 3.2 | 4.8 | 0.00 | 1.22 | 1.22 | 89 | 998.5 |
| 20260507212618 | -17 | 143 | 0.0 | 0.0 | 0.00 | 1.22 | 1.22 | 91 | 998.6 |
| 20260507212118 | -17 | 144 | 0.0 | 0.0 | 0.00 | 1.22 | 1.22 | 91 | 998.7 |
| 20260507211618 | -17 | 129 | 0.0 | 0.0 | 0.00 | 1.22 | 1.22 | 90 | 998.8 |
| 20260507211117 | -17 | 156 | 0.0 | 0.0 | 0.00 | 1.22 | 1.22 | 90 | 998.7 |
| 20260507210617 | -17 | 172 | 0.0 | 0.0 | 0.00 | 1.22 | 1.22 | 91 | 998.7 |
| 20260507210117 | -17 | 86 | 1.6 | 3.2 | 0.00 | 1.22 | 1.22 | 91 | 998.6 |
| 20260507205616 | -17 | 320 | 0.0 | 0.0 | 0.00 | 1.22 | 1.22 | 92 | 998.5 |
| 20260507205116 | -17 | 129 | 0.0 | 1.6 | 0.00 | 1.22 | 1.22 | 92 | 998.8 |
| 20260507204616 | -17 | 194 | 0.0 | 0.0 | 0.00 | 1.22 | 1.22 | 92 | 998.3 |
| 20260507204115 | -17 | 159 | 0.0 | 0.0 | 0.00 | 1.22 | 1.22 | 92 | 998.4 |
| 20260507203615 | -17 | 129 | 0.0 | 0.0 | 0.00 | 1.22 | 1.22 | 92 | 998.4 |
| 20260507203114 | -17 | 120 | 1.6 | 1.6 | 0.00 | 1.22 | 1.22 | 92 | 998.3 |
| 20260507202614 | -17 | 163 | 0.0 | 0.0 | 0.00 | 1.22 | 1.22 | 93 | 998.4 |
| 20260507202114 | -17 | 155 | 0.0 | 0.0 | 0.00 | 1.22 | 1.22 | 93 | 998.2 |
| 20260507201613 | -17 | 137 | 0.0 | 0.0 | 0.00 | 1.22 | 1.22 | 93 | 998.6 |
| 20260507201113 | -17 | 156 | 0.0 | 0.0 | 0.00 | 1.22 | 1.22 | 94 | 998.4 |
| 20260507200613 | -17 | 181 | 0.0 | 0.0 | 0.00 | 1.22 | 1.22 | 93 | 998.3 |
| 20260507200112 | -17 | 177 | 1.6 | 3.2 | 0.00 | 1.22 | 1.22 | 93 | 998.0 |
| 20260507195612 | -17 | 110 | 0.0 | 0.0 | 0.00 | 1.22 | 1.22 | 93 | 998.3 |
| 20260507195112 | -17 | 105 | 1.6 | 1.6 | 0.00 | 1.22 | 1.22 | 94 | 998.1 |
| 20260507194612 | -17 | 133 | 0.0 | 1.6 | 0.00 | 1.22 | 1.22 | 93 | 998.3 |
| 20260507194111 | -17 | 132 | 0.0 | 0.0 | 0.00 | 1.22 | 1.22 | 93 | 998.4 |
| 20260507193611 | -17 | 178 | 1.6 | 1.6 | 0.00 | 1.22 | 1.22 | 94 | 998.1 |
| 20260507193111 | -17 | 52 | 3.2 | 3.2 | 0.00 | 1.22 | 1.22 | 94 | 998.0 |
| 20260507192610 | -17 | 98 | 0.0 | 1.6 | 0.00 | 1.22 | 1.22 | 95 | 998.1 |
| 20260507192110 | -17 | 129 | 1.6 | 3.2 | 0.00 | 1.22 | 1.22 | 96 | 998.4 |
| 20260507191610 | -17 | 181 | 0.0 | 0.0 | 0.00 | 1.22 | 1.22 | 96 | 998.1 |
| 20260507191109 | -17 | 121 | 0.0 | 0.0 | 0.00 | 1.22 | 1.22 | 96 | 998.5 |
| 20260507190609 | -17 | 88 | 1.6 | 1.6 | 0.00 | 1.22 | 1.22 | 96 | 998.7 |
| 20260507185608 | -17 | 129 | 0.0 | 1.6 | 0.00 | 1.22 | 1.22 | 96 | 998.5 |
| 20260507185108 | -17 | 159 | 1.6 | 1.6 | 0.00 | 1.22 | 1.22 | 96 | 998.2 |
| 20260507184607 | -17 | 135 | 0.0 | 0.0 | 0.00 | 1.22 | 1.22 | 97 | 997.7 |
| 20260507184107 | -17 | 128 | 0.0 | 0.0 | 0.00 | 1.22 | 1.22 | 97 | 997.8 |
| 20260507183607 | -17 | 129 | 0.0 | 0.0 | 0.00 | 1.22 | 1.22 | 97 | 998.1 |
| 20260507183106 | -17 | 167 | 0.0 | 1.6 | 0.00 | 1.22 | 1.22 | 97 | 998.3 |
| 20260507182606 | -17 | 135 | 0.0 | 1.6 | 0.00 | 1.22 | 1.22 | 97 | 998.4 |
| 20260507182106 | -17 | 290 | 0.0 | 0.0 | 0.00 | 1.22 | 1.22 | 97 | 998.6 |
| 20260507181605 | -17 | 336 | 1.6 | 3.2 | 0.00 | 1.22 | 1.22 | 97 | 998.5 |
| 20260507181105 | -17 | 338 | 3.2 | 6.4 | 0.00 | 1.22 | 1.22 | 97 | 997.7 |
| 20260507180604 | -17 | 140 | 0.0 | 0.0 | 0.13 | 1.22 | 1.22 | 97 | 998.2 |
| 20260507180104 | -17 | 189 | 0.0 | 0.0 | 0.13 | 1.22 | 1.22 | 98 | 998.0 |
| 20260507175604 | -17 | 143 | 0.0 | 0.0 | 0.00 | 1.19 | 1.19 | 98 | 998.0 |
| 20260507175103 | -17 | 79 | 0.0 | 1.6 | 0.00 | 1.19 | 1.19 | 97 | 997.8 |
| 20260507174603 | -17 | 80 | 3.2 | 3.2 | 0.00 | 1.19 | 1.19 | 98 | 997.5 |
| 20260507174102 | -17 | 132 | 0.0 | 0.0 | 0.00 | 1.19 | 1.19 | 97 | 997.8 |
| 20260507173602 | -17 | 141 | 0.0 | 0.0 | 0.18 | 1.19 | 1.19 | 97 | 998.5 |
| 20260507173102 | -17 | 143 | 0.0 | 1.6 | 0.18 | 1.19 | 1.19 | 96 | 998.6 |
| 20260507172602 | -17 | 119 | 0.0 | 0.0 | 0.00 | 1.17 | 1.17 | 96 | 998.2 |
| 20260507172101 | -17 | 124 | 0.0 | 0.0 | 0.00 | 1.17 | 1.17 | 96 | 997.9 |
| 20260507171601 | -17 | 123 | 3.2 | 4.8 | 0.00 | 1.17 | 1.17 | 96 | 997.7 |
| 20260507171101 | -17 | 152 | 1.6 | 1.6 | 0.00 | 1.17 | 1.17 | 96 | 997.7 |
| 20260507170600 | -17 | 8 | 1.6 | 3.2 | 0.13 | 1.17 | 1.17 | 95 | 997.3 |
| 20260507170100 | -17 | 323 | 9.7 | 14.5 | 0.13 | 1.17 | 1.17 | 95 | 997.2 |
| 20260507165600 | -17 | 105 | 1.6 | 1.6 | 0.13 | 1.17 | 1.17 | 98 | 996.7 |
| 20260507165059 | -17 | 129 | 0.0 | 0.0 | 0.18 | 1.14 | 1.14 | 98 | 996.6 |
| 20260507164559 | -17 | 115 | 0.0 | 0.0 | 0.18 | 1.14 | 1.14 | 99 | 996.8 |
| 20260507164059 | -17 | 116 | 0.0 | 0.0 | 0.00 | 1.12 | 1.12 | 98 | 997.0 |
| 20260507163558 | -17 | 119 | 0.0 | 0.0 | 0.00 | 1.12 | 1.12 | 99 | 996.9 |
| 20260507163058 | -17 | 119 | 0.0 | 0.0 | 0.00 | 1.12 | 1.12 | 99 | 997.0 |
| 20260507162557 | -17 | 121 | 0.0 | 0.0 | 0.13 | 1.12 | 1.12 | 99 | 997.3 |
| 20260507162057 | -17 | 119 | 0.0 | 0.0 | 0.30 | 1.12 | 1.12 | 99 | 997.5 |
| 20260507161557 | -17 | 145 | 0.0 | 0.0 | 0.30 | 1.09 | 1.09 | 99 | 998.1 |
| 20260507161056 | -17 | 68 | 1.6 | 3.2 | 0.30 | 1.07 | 1.07 | 99 | 998.2 |
| 20260507160556 | -17 | 127 | 0.0 | 0.0 | 0.18 | 1.04 | 1.04 | 99 | 998.4 |
| 20260507160055 | -17 | 137 | 0.0 | 0.0 | 0.18 | 1.02 | 1.02 | 99 | 998.1 |
| 20260507155555 | -17 | 136 | 0.0 | 0.0 | 0.18 | 1.02 | 1.02 | 99 | 998.4 |
| 20260507155055 | -17 | 130 | 0.0 | 0.0 | 0.00 | 0.99 | 0.99 | 99 | 998.4 |
| 20260507154554 | -17 | 156 | 0.0 | 0.0 | 0.00 | 0.99 | 0.99 | 99 | 998.2 |
| 20260507154054 | -17 | 156 | 0.0 | 0.0 | 0.00 | 0.99 | 0.99 | 99 | 998.0 |
| 20260507153554 | -17 | 156 | 0.0 | 0.0 | 0.00 | 0.99 | 0.99 | 99 | 998.0 |
| 20260507153053 | -17 | 156 | 0.0 | 0.0 | 0.00 | 0.99 | 0.99 | 99 | 997.8 |
| 20260507152553 | -17 | 156 | 0.0 | 0.0 | 0.13 | 0.99 | 0.99 | 99 | 997.6 |
| 20260507152053 | -17 | 156 | 0.0 | 0.0 | 0.13 | 0.99 | 0.99 | 99 | 997.6 |
| 20260507151552 | -17 | 153 | 0.0 | 0.0 | 0.18 | 0.97 | 0.97 | 99 | 997.8 |
| 20260507151052 | -17 | 153 | 0.0 | 0.0 | 0.18 | 0.97 | 0.97 | 99 | 997.8 |
| 20260507150551 | -17 | 153 | 0.0 | 0.0 | 0.30 | 0.97 | 0.97 | 99 | 998.0 |
| 20260507150051 | -17 | 151 | 0.0 | 0.0 | 0.30 | 0.94 | 0.94 | 99 | 998.2 |
| 20260507145551 | -17 | 152 | 0.0 | 0.0 | 0.18 | 0.91 | 0.91 | 99 | 998.1 |
| 20260507145050 | -17 | 155 | 0.0 | 0.0 | 0.18 | 0.91 | 0.91 | 99 | 998.1 |
| 20260507144550 | -17 | 156 | 0.0 | 0.0 | 0.00 | 0.89 | 0.89 | 99 | 997.7 |
| 20260507144049 | -17 | 156 | 0.0 | 0.0 | 0.13 | 0.89 | 0.89 | 99 | 997.8 |
| 20260507143533 | -17 | 156 | 0.0 | 0.0 | 0.30 | 0.89 | 0.89 | 99 | 997.9 |
| 20260507143033 | -17 | 154 | 0.0 | 0.0 | 0.30 | 0.86 | 0.86 | 99 | 998.1 |
| 20260507142532 | -17 | 156 | 0.0 | 0.0 | 0.48 | 0.86 | 0.86 | 99 | 998.1 |
| 20260507142032 | -17 | 151 | 0.0 | 0.0 | 0.30 | 0.81 | 0.81 | 99 | 997.9 |
| 20260507141532 | -17 | 150 | 0.0 | 0.0 | 0.13 | 0.79 | 0.79 | 99 | 998.0 |
| 20260507141031 | -17 | 150 | 0.0 | 0.0 | 0.00 | 0.76 | 0.76 | 99 | 997.9 |
| 20260507140531 | -17 | 150 | 0.0 | 0.0 | 0.00 | 0.76 | 0.76 | 99 | 998.0 |
| 20260507140030 | -17 | 155 | 0.0 | 0.0 | 0.18 | 0.76 | 0.76 | 99 | 998.0 |
| 20260507135529 | -17 | 155 | 0.0 | 0.0 | 0.18 | 0.76 | 0.76 | 99 | 997.9 |
| 20260507135028 | -17 | 155 | 0.0 | 0.0 | 0.13 | 0.74 | 0.74 | 99 | 998.0 |
| 20260507134528 | -17 | 155 | 0.0 | 0.0 | 0.30 | 0.74 | 0.74 | 99 | 998.3 |
| 20260507134028 | -17 | 153 | 0.0 | 0.0 | 0.18 | 0.71 | 0.71 | 99 | 998.7 |
| 20260507133527 | -17 | 153 | 0.0 | 0.0 | 0.18 | 0.69 | 0.69 | 99 | 998.9 |
| 20260507133027 | -17 | 152 | 0.0 | 0.0 | 0.18 | 0.69 | 0.69 | 99 | 998.6 |
| 20260507132526 | -17 | 152 | 0.0 | 0.0 | 0.00 | 0.66 | 0.66 | 99 | 998.9 |
| 20260507132026 | -17 | 152 | 0.0 | 0.0 | 0.00 | 0.66 | 0.66 | 99 | 998.6 |
| 20260507131526 | -17 | 152 | 0.0 | 0.0 | 0.00 | 0.66 | 0.66 | 99 | 998.7 |
| 20260507131025 | -17 | 152 | 0.0 | 0.0 | 0.00 | 0.66 | 0.66 | 99 | 998.7 |
| 20260507130525 | -17 | 152 | 0.0 | 0.0 | 0.13 | 0.66 | 0.66 | 99 | 998.7 |
| 20260507130025 | -17 | 152 | 0.0 | 0.0 | 0.13 | 0.66 | 0.66 | 99 | 998.7 |
| 20260507125524 | -17 | 153 | 0.0 | 0.0 | 0.13 | 0.66 | 0.66 | 99 | 998.6 |
| 20260507125024 | -17 | 153 | 0.0 | 0.0 | 0.00 | 0.64 | 0.64 | 99 | 998.5 |
| 20260507124524 | -17 | 153 | 0.0 | 0.0 | 0.00 | 0.64 | 0.64 | 99 | 998.6 |
| 20260507124023 | -17 | 153 | 0.0 | 0.0 | 0.00 | 0.64 | 0.64 | 99 | 998.9 |
| 20260507123523 | -17 | 153 | 0.0 | 0.0 | 0.00 | 0.64 | 0.64 | 99 | 998.8 |
| 20260507123023 | -17 | 153 | 0.0 | 0.0 | 0.00 | 0.64 | 0.64 | 99 | 998.7 |
| 20260507122522 | -17 | 153 | 0.0 | 0.0 | 0.00 | 0.64 | 0.64 | 99 | 998.4 |
| 20260507122022 | -17 | 153 | 0.0 | 0.0 | 0.00 | 0.64 | 0.64 | 99 | 998.5 |
| 20260507121522 | -17 | 153 | 0.0 | 0.0 | 0.00 | 0.64 | 0.64 | 99 | 998.4 |
| 20260507121022 | -17 | 153 | 0.0 | 0.0 | 0.00 | 0.64 | 0.64 | 99 | 998.4 |
| 20260507120521 | -17 | 153 | 0.0 | 0.0 | 0.00 | 0.64 | 0.64 | 99 | 998.4 |
| 20260507120021 | -17 | 153 | 0.0 | 0.0 | 0.00 | 0.64 | 0.64 | 99 | 998.5 |
| 20260507115520 | -17 | 153 | 0.0 | 0.0 | 0.00 | 0.64 | 0.64 | 99 | 998.8 |
| 20260507115020 | -17 | 153 | 0.0 | 0.0 | 0.00 | 0.64 | 0.64 | 99 | 998.8 |
| 20260507114520 | -17 | 153 | 0.0 | 0.0 | 0.00 | 0.64 | 0.64 | 99 | 998.7 |
| 20260507114020 | -17 | 153 | 0.0 | 0.0 | 0.00 | 0.64 | 0.64 | 99 | 998.5 |
| 20260507113519 | -17 | 153 | 0.0 | 0.0 | 0.00 | 0.64 | 0.64 | 99 | 998.9 |
| 20260507113019 | -17 | 153 | 0.0 | 0.0 | 0.00 | 0.64 | 0.64 | 99 | 999.0 |
| 20260507112514 | -17 | 153 | 0.0 | 0.0 | 0.00 | 0.64 | 0.64 | 99 | 998.9 |
| 20260507112013 | -17 | 153 | 0.0 | 0.0 | 0.00 | 0.64 | 0.64 | 99 | 998.8 |
| 20260507111513 | -17 | 153 | 0.0 | 0.0 | 0.00 | 0.64 | 0.64 | 99 | 998.9 |
| 20260507111013 | -17 | 153 | 0.0 | 0.0 | 0.00 | 0.64 | 0.64 | 99 | 998.9 |
| 20260507110512 | -17 | 153 | 0.0 | 0.0 | 0.00 | 0.64 | 0.64 | 99 | 999.0 |
| 20260507110012 | -17 | 153 | 0.0 | 0.0 | 0.00 | 0.64 | 0.64 | 99 | 998.9 |
| 20260507105512 | -17 | 153 | 0.0 | 0.0 | 0.00 | 0.64 | 0.64 | 99 | 999.0 |
| 20260507105011 | -17 | 153 | 0.0 | 0.0 | 0.18 | 0.64 | 0.64 | 99 | 998.8 |
| 20260507104511 | -17 | 153 | 0.0 | 0.0 | 0.18 | 0.64 | 0.64 | 99 | 998.5 |
| 20260507104011 | -17 | 153 | 0.0 | 0.0 | 0.00 | 0.61 | 0.61 | 99 | 998.6 |
| 20260507103511 | -17 | 153 | 0.0 | 0.0 | 0.00 | 0.61 | 0.61 | 99 | 998.4 |
| 20260507103010 | -17 | 152 | 0.0 | 0.0 | 0.00 | 0.61 | 0.61 | 99 | 998.6 |
| 20260507102510 | -17 | 147 | 0.0 | 0.0 | 0.00 | 0.61 | 0.61 | 99 | 998.6 |
| 20260507102009 | -17 | 148 | 0.0 | 0.0 | 0.00 | 0.61 | 0.61 | 99 | 998.6 |
| 20260507101509 | -17 | 152 | 0.0 | 0.0 | 0.00 | 0.61 | 0.61 | 99 | 998.5 |
| 20260507101009 | -17 | 152 | 0.0 | 0.0 | 0.00 | 0.61 | 0.61 | 99 | 998.4 |
| 20260507100508 | -17 | 152 | 0.0 | 0.0 | 0.00 | 0.61 | 0.61 | 99 | 998.6 |
| 20260507100008 | -17 | 152 | 0.0 | 0.0 | 0.13 | 0.61 | 0.61 | 99 | 998.5 |
| 20260507095507 | -17 | 152 | 0.0 | 0.0 | 0.13 | 0.61 | 0.61 | 99 | 998.5 |
| 20260507095007 | -17 | 152 | 0.0 | 0.0 | 0.00 | 0.58 | 0.58 | 99 | 998.6 |
| 20260507094507 | -17 | 152 | 0.0 | 0.0 | 0.00 | 0.58 | 0.58 | 99 | 998.5 |
| 20260507094006 | -17 | 152 | 0.0 | 0.0 | 0.00 | 0.58 | 0.58 | 99 | 998.5 |
| 20260507093506 | -17 | 152 | 0.0 | 0.0 | 0.00 | 0.58 | 0.58 | 99 | 998.6 |
| 20260507093005 | -17 | 152 | 0.0 | 0.0 | 0.00 | 0.58 | 0.58 | 99 | 998.7 |
| 20260507092505 | -17 | 152 | 0.0 | 0.0 | 0.00 | 0.58 | 0.58 | 99 | 998.8 |
| 20260507092005 | -17 | 152 | 0.0 | 0.0 | 0.00 | 0.58 | 0.58 | 99 | 998.6 |
| 20260507091504 | -17 | 152 | 0.0 | 0.0 | 0.00 | 0.58 | 0.58 | 99 | 998.3 |
| 20260507091004 | -17 | 152 | 0.0 | 0.0 | 0.00 | 0.58 | 0.58 | 99 | 998.5 |
| 20260507090504 | -17 | 152 | 0.0 | 0.0 | 0.00 | 0.58 | 0.58 | 99 | 998.7 |
| 20260507090005 | -17 | 152 | 0.0 | 0.0 | 0.00 | 0.58 | 0.58 | 99 | 998.5 |
| 20260507085503 | -17 | 152 | 0.0 | 0.0 | 0.00 | 0.58 | 0.58 | 99 | 998.9 |
| 20260507085002 | -17 | 152 | 0.0 | 0.0 | 0.00 | 0.58 | 0.58 | 99 | 998.8 |
| 20260507084502 | -17 | 152 | 0.0 | 0.0 | 0.00 | 0.58 | 0.58 | 99 | 998.9 |
| 20260507084002 | -17 | 152 | 0.0 | 0.0 | 0.00 | 0.58 | 0.58 | 99 | 998.9 |
| 20260507083501 | -17 | 152 | 0.0 | 0.0 | 0.00 | 0.58 | 0.58 | 99 | 998.8 |
| 20260507083001 | -17 | 152 | 0.0 | 0.0 | 0.00 | 0.58 | 0.58 | 99 | 999.0 |
| 20260507082501 | -17 | 152 | 0.0 | 0.0 | 0.00 | 0.58 | 0.58 | 99 | 999.0 |
| 20260507082000 | -17 | 149 | 0.0 | 0.0 | 0.00 | 0.58 | 0.58 | 99 | 999.3 |
| 20260507081500 | -17 | 149 | 0.0 | 0.0 | 0.00 | 0.58 | 0.58 | 99 | 999.7 |
| 20260507081000 | -17 | 149 | 0.0 | 0.0 | 0.00 | 0.58 | 0.58 | 99 | 999.6 |
| 20260507080459 | -17 | 149 | 0.0 | 0.0 | 0.00 | 0.58 | 0.58 | 99 | 999.5 |
| 20260507075959 | -17 | 149 | 0.0 | 0.0 | 0.00 | 0.58 | 0.58 | 99 | 999.5 |
| 20260507075458 | -17 | 149 | 0.0 | 0.0 | 0.00 | 0.58 | 0.58 | 99 | 998.9 |
| 20260507074957 | -17 | 149 | 0.0 | 0.0 | 0.18 | 0.58 | 0.58 | 99 | 998.7 |
| 20260507074456 | -17 | 149 | 0.0 | 0.0 | 0.18 | 0.58 | 0.58 | 99 | 998.7 |
| 20260507073956 | -17 | 149 | 0.0 | 0.0 | 0.13 | 0.56 | 0.56 | 99 | 999.1 |
| 20260507073456 | -17 | 149 | 0.0 | 0.0 | 0.13 | 0.56 | 0.56 | 99 | 999.3 |
| 20260507072954 | -17 | 149 | 0.0 | 0.0 | 0.00 | 0.53 | 0.53 | 98 | 999.7 |
| 20260507072454 | -17 | 150 | 0.0 | 0.0 | 0.00 | 0.53 | 0.53 | 98 | 999.8 |
| 20260507071953 | -17 | 149 | 0.0 | 0.0 | 0.00 | 0.53 | 0.53 | 98 | 999.8 |
| 20260507071453 | -17 | 149 | 0.0 | 0.0 | 0.00 | 0.53 | 0.53 | 98 | 999.6 |
| 20260507070953 | -17 | 149 | 0.0 | 0.0 | 0.00 | 0.53 | 0.53 | 98 | 999.9 |
| 20260507070447 | -17 | 148 | 0.0 | 0.0 | 0.00 | 0.53 | 0.53 | 98 | 999.6 |
| 20260507065936 | -17 | 148 | 0.0 | 0.0 | 0.00 | 0.53 | 0.53 | 98 | 1000.0 |
| 20260507065435 | -17 | 148 | 0.0 | 0.0 | 0.00 | 0.53 | 0.53 | 98 | 999.9 |